Simultaneous Nadir Overpasses (SNOs) Predictions

Prediction of SNOs between AQUA and GOES-15 Satellite Orbit:

Table of predicted SNOs for the next 14.0 days since TLE Epoch: 4/10/2020
Index Date Time (AQUA) AQUA Lat,Lon GOES-15 Lat,Lon Distance(km) Time Diff (sec)
1 04/11/2020 09:49:12 -1.14,-123.52 -0.23,-127.77 483.19 80
2 04/11/2020 22:10:36 0.03,-128.71 0.21,-127.78 104.94 80
3 04/13/2020 21:58:24 0.63,-125.75 0.21,-127.85 238.42 80
4 04/14/2020 10:19:40 0.44,-130.91 -0.19,-127.87 344.96 80
5 04/16/2020 10:07:28 -0.17,-127.95 -0.19,-127.93 2.71 80
6 04/18/2020 09:55:17 -0.84,-125.00 -0.19,-128.00 340.83 80
7 04/18/2020 22:16:41 -0.27,-130.19 0.17,-128.00 248.29 80
8 04/20/2020 22:04:29 0.34,-127.23 0.17,-128.06 94.42 80
9 04/21/2020 10:25:43 0.78,-132.38 -0.15,-128.09 488.23 80
10 04/22/2020 21:52:18 1.02,-124.28 0.18,-128.12 436.70 80
11 04/23/2020 10:13:32 0.10,-129.43 -0.16,-128.14 146.21 80




NCC Satellite Simultaneous Nadir Overpasses (SNOs) Prediction Service
